WC4R Weather Reports


Display with metric or nautical units.
time (UTC)temp
F
wind
direction
speed
MPH
gust
MPH
rain 1hr
in
rain 24hr
in
rain mn
in
humidity
%
barometer
mb
20260507125004 58 28 0.0 7.0 0.01 0.16 0.16 95 1010.5
20260507124004 58 14 1.0 6.0 0.02 0.16 0.16 95 1010.5
20260507121004 59 21 1.0 8.0 0.02 0.15 0.15 95 1009.7
20260507120005 60 10 1.0 7.0 0.03 0.15 0.15 95 1009.7
20260507114005 60 33 0.0 2.0 0.02 0.14 0.14 95 1009.7
20260507113005 60 9 0.0 0.0 0.02 0.13 0.13 95 1009.7
20260507112004 61 22 0.0 5.0 0.03 0.13 0.13 95 1009.7
20260507110004 61 16 1.0 9.0 0.02 0.12 0.12 95 1008.0
20260507105003 62 14 0.0 8.0 0.02 0.12 0.12 95 1008.0
20260507103004 62 14 1.0 10.0 0.01 0.11 0.11 95 1008.0
20260507102004 63 13 1.0 5.0 0.01 0.10 0.10 95 1008.0
20260507101003 64 4 0.0 8.0 0.04 0.10 0.10 95 1008.0
20260507100005 65 7 5.0 12.0 0.07 0.10 0.10 95 1008.0
20260507095004 67 6 1.0 3.0 0.07 0.10 0.10 96 1008.0
20260507092004 67 0 0.0 0.0 0.06 0.09 0.09 96 1008.0
20260507091004 67 0 0.0 0.0 0.03 0.06 0.06 96 1008.0
20260507090005 67 0 0.0 0.0 0.00 0.03 0.03 96 1008.0
20260507085004 67 0 0.0 0.0 0.00 0.03 0.03 96 1008.0
20260507084004 67 0 0.0 0.0 0.00 0.03 0.03 96 1008.0
20260507082004 67 0 0.0 0.0 0.00 0.03 0.03 96 1008.0
20260507081004 67 0 0.0 0.0 0.00 0.03 0.03 96 1008.0
20260507080005 67 0 0.0 0.0 0.00 0.03 0.03 96 1008.0
20260507075004 67 0 0.0 0.0 0.00 0.03 0.03 96 1008.0
20260507074004 67 0 0.0 0.0 0.00 0.03 0.03 96 1008.1
20260507073004 67 0 0.0 0.0 0.00 0.03 0.03 96 1008.1
20260507072004 67 0 0.0 0.0 0.00 0.03 0.03 95 1008.1
20260507071004 67 0 0.0 0.0 0.01 0.03 0.03 95 1008.1
20260507070009 68 0 0.0 0.0 0.02 0.03 0.03 95 1008.1
20260507065004 68 0 0.0 0.0 0.02 0.03 0.03 95 1007.8
20260507064004 68 0 0.0 0.0 0.02 0.03 0.03 94 1007.8
20260507063004 68 0 0.0 0.0 0.03 0.03 0.03 94 1009.2
20260507062004 68 0 0.0 0.0 0.03 0.03 0.03 93 1009.2
20260507061004 69 1 0.0 0.0 0.02 0.02 0.02 93 1009.2
20260507060005 69 0 0.0 1.0 0.01 0.01 0.01 92 1009.2
20260507055004 69 0 0.0 1.0 0.01 0.01 0.01 91 1009.2
20260507054004 69 0 0.0 0.0 0.01 0.01 0.01 90 1009.2
20260507053004 69 0 0.0 0.0 0.00 0.00 0.00 90 1009.2
20260507052003 69 0 0.0 0.0 0.00 0.00 0.00 89 1009.2
20260507050006 70 0 0.0 0.0 0.00 0.00 0.00 88 1009.2
20260507045003 70 0 0.0 0.0 0.00 0.00 0.00 87 1009.2
20260507044004 70 0 0.0 1.0 0.00 0.00 0.00 86 1009.2
20260507043004 70 0 0.0 0.0 0.00 0.00 0.00 86 1009.2
20260507042004 70 0 0.0 0.0 0.00 0.00 0.00 85 1009.2
20260507041004 70 0 0.0 0.0 0.00 0.00 0.00 85 1009.2
20260507040004 70 0 0.0 0.0 0.00 0.00 0.00 85 1009.2
20260507035005 70 0 0.0 0.0 0.00 0.00 0.00 85 1009.2
20260507034004 70 0 0.0 1.0 0.00 0.00 0.00 85 1009.2
20260507033004 70 0 0.0 0.0 0.00 0.00 0.00 85 1009.4
20260507032004 70 0 0.0 3.0 0.00 0.00 0.00 85 1009.4
20260507025004 69 0 0.0 0.0 0.00 0.00 0.00 86 1009.4
20260507024004 69 13 0.0 0.0 0.00 0.00 0.00 85 1009.4
20260507023005 69 0 0.0 0.0 0.00 0.00 0.00 85 1009.4
20260507022004 69 0 0.0 0.0 0.00 0.00 0.00 84 1009.4
20260507021004 69 0 0.0 0.0 0.00 0.00 0.00 84 1009.4
20260507020004 70 0 0.0 0.0 0.00 0.00 0.00 83 1009.4
20260507014003 70 0 0.0 0.0 0.00 0.00 0.00 82 1009.4
20260507013004 70 0 0.0 0.0 0.00 0.00 0.00 82 1009.4
20260507012005 70 0 0.0 0.0 0.00 0.00 0.00 82 1009.4
20260507005004 71 196 0.0 0.0 0.00 0.00 0.00 79 1009.5
20260507004004 72 190 0.0 0.0 0.00 0.00 0.00 79 1009.5
20260507002006 72 180 0.0 0.0 0.00 0.00 0.00 78 1008.8
20260507001004 72 217 0.0 0.0 0.00 0.00 0.00 77 1008.8
20260506235003 73 216 0.0 0.0 0.00 0.00 0.00 76 1008.8
20260506234004 73 265 0.0 0.0 0.00 0.00 0.00 76 1008.8
20260506233004 73 236 0.0 0.0 0.00 0.00 0.00 75 1008.8
20260506225004 74 221 0.0 0.0 0.00 0.00 0.00 75 1008.8
20260506223004 75 342 0.0 0.0 0.00 0.00 0.00 74 1008.8
20260506222004 75 356 0.0 0.0 0.00 0.00 0.00 74 1008.8
20260506221004 75 143 0.0 0.0 0.00 0.00 0.00 74 1008.8
20260506220004 74 0 0.0 0.0 0.00 0.00 0.00 75 1008.8
20260506215005 74 349 0.0 3.0 0.00 0.00 0.00 74 1008.8
20260506214004 75 0 0.0 0.0 0.00 0.00 0.00 75 1008.4
20260506213004 75 308 0.0 0.0 0.00 0.00 0.00 74 1008.4
20260506211003 75 349 0.0 0.0 0.00 0.00 0.00 73 1008.4
20260506205004 75 298 0.0 3.0 0.00 0.00 0.00 72 1008.4
20260506203004 75 259 0.0 3.0 0.00 0.00 0.00 73 1008.4
20260506202004 75 269 0.0 3.0 0.00 0.00 0.00 75 1008.4
20260506201004 75 4 0.0 2.0 0.00 0.00 0.00 74 1010.5
20260506200004 74 323 0.0 3.0 0.00 0.00 0.00 75 1010.5
20260506195004 74 348 0.0 3.0 0.00 0.00 0.00 74 1010.5
20260506194004 74 355 1.0 12.0 0.00 0.00 0.00 72 1010.5
20260506193005 75 334 0.0 3.0 0.00 0.00 0.00 73 1010.5
20260506192005 75 322 0.0 6.0 0.00 0.00 0.00 73 1010.5
20260506191004 75 0 0.0 5.0 0.00 0.00 0.00 72 1010.5
20260506190006 74 0 0.0 0.0 0.00 0.00 0.00 74 1010.5
20260506184005 74 0 0.0 1.0 0.00 0.00 0.00 75 1010.5
20260506183006 74 0 0.0 5.0 0.00 0.00 0.00 71 1010.6
20260506182005 75 0 0.0 3.0 0.00 0.00 0.00 71 1010.6
20260506181003 75 0 0.0 3.0 0.00 0.00 0.00 73 1010.5
20260506180005 75 219 0.0 7.0 0.00 0.00 0.00 75 1011.9
20260506175004 74 2 1.0 5.0 0.00 0.00 0.00 75 1011.9
20260506173004 72 262 0.0 7.0 0.00 0.00 0.00 78 1011.9
20260506172004 72 281 0.0 7.0 0.00 0.00 0.00 80 1011.9
20260506170004 70 0 1.0 3.0 0.00 0.00 0.00 83 1011.9
20260506165004 69 0 0.0 5.0 0.00 0.00 0.00 86 1011.9
20260506163004 69 0 0.0 0.0 0.00 0.00 0.00 87 1011.9
20260506162004 69 0 0.0 2.0 0.00 0.00 0.00 85 1012.6
20260506160004 69 0 0.0 0.0 0.00 0.00 0.00 82 1012.6
20260506154004 69 0 0.0 0.0 0.00 0.00 0.00 83 1012.6
20260506153004 69 0 1.0 3.0 0.00 0.00 0.00 83 1012.6
20260506152004 69 0 0.0 3.0 0.00 0.00 0.00 83 1012.6
20260506151004 69 0 0.0 0.0 0.00 0.00 0.00 82 1012.6
20260506145004 69 0 1.0 9.0 0.00 0.00 0.00 82 1012.6
20260506144004 69 14 0.0 5.0 0.00 0.00 0.00 81 1012.6
20260506143004 69 0 0.0 3.0 0.00 0.00 0.00 82 1012.6
20260506141004 68 0 0.0 5.0 0.00 0.00 0.00 82 1012.6
20260506140005 68 0 0.0 3.0 0.00 0.00 0.00 80 1012.5
20260506135004 69 275 0.0 12.0 0.00 0.00 0.00 80 1012.5
20260506134004 69 329 0.0 12.0 0.00 0.00 0.00 78 1012.5
20260506133004 70 349 1.0 12.0 0.00 0.00 0.00 78 1012.5
20260506132004 69 239 1.0 8.0 0.00 0.00 0.00 78 1012.5
20260506131003 70 261 1.0 6.0 0.00 0.00 0.00 78 1012.5